Погода в Ново-Георгиевском

Россия / Республика Северная Осетия — Алания     43°45′45″N   44°42′11″E
темп.,
°C
ветер,
м/с
пор.,
м/с
влажн.,
%
обл.,
%
осадки,
мм/ч
давл.,
гПа
погр.,
м
13 июня, вс
вс1300:00+19юз1177100 0.4 101211
03:00+18з2283100 0.4 101112
06:00+18зюз2389100 0.1 101292
09:00+20з2280100 0.1 1012316
12:00+19с2387100 0.6 1012176
15:00+23ссз2364100 0.6 1011768
18:00+18з6992100 1.6 1012291
21:00+17зюз2295100 10.3 101350
14 июня, пн
пн1400:00+16юв01955 0.1 101311
03:00+16з11950 0.1 101311
06:00+17зюз22900 0.0 1013125
09:00+22ссв11721 0.0 1012666
12:00+26всв225710 0.0 10111397
15:00+28в124816 0.0 10101779
18:00+28всв015519 0.0 1010419
21:00+21св22660 0.0 101016
15 июня, вт
вт1500:00+20всв117164 0.0 100911
03:00+19в117684 0.0 100811
06:00+20зюз11750 0.0 100872
09:00+25в34600 0.0 1007854
12:00+28св234821 0.0 10071636
15:00+30с224519 0.0 10071921
18:00+27ссз476552 0.0 1008305
21:00+22зсз11772 0.1 101012
16 июня, ср
ср1600:00+21зсз117957 0.1 101015
03:00+20зсз228920 0.1 101027
06:00+21з118211 0.0 1011103
09:00+26всв34590 0.0 1010955
12:00+30вюв464530 0.0 10081990
15:00+33в46360 0.0 10062342
18:00+29в48480 0.0 1007232
21:00+23вюв36560 0.0 100994
17 июня, чт
чт1700:00+21вюв33610 0.0 100839
03:00+19в11700 0.0 100811
06:00+21з11721 0.0 100887
09:00+26с12560 0.0 1006762
12:00+30зсз01450 0.0 10041311
15:00+31з554825 0.0 10051654
18:00+25зсз710744 0.1 1007564
21:00+21зсз8148235 0.3 1011765